Printer-friendly version
Follow the MPC on Twitter Follow the MPC on Facebook The MPC blog
Minor Planet Center

MPEC 2007-X11 : COMET C/2007 U1 (LINEAR)

The following Minor Planet Electronic Circular may be linked-to from your own Web pages, but must not otherwise be redistributed electronically.

A form allowing access to any MPEC is at the bottom of this page.


Read MPEC 2007-X10 Read MPEC 2007-X12


M.P.E.C. 2007-X11                                Issued 2007 Dec. 3, 15:09 UT

     The Minor Planet Electronic Circulars contain information on unusual
         minor planets and routine data on comets.  They are published
   on behalf of Commission 20 of the International Astronomical Union by the
          Minor Planet Center, Smithsonian Astrophysical Observatory,
                          Cambridge, MA 02138, U.S.A.

             Prepared using the Tamkin Foundation Computer Network

                              MPC@CFA.HARVARD.EDU
          URL http://www.cfa.harvard.edu/iau/mpc.html  ISSN 1523-6714

                           COMET C/2007 U1 (LINEAR)

Observations:
    CK07U010  C2007 11 25.66084 07 07 49.64 +01 49 03.2                 EX011349
    CK07U010  C2007 11 25.66319 07 07 49.40 +01 49 03.3                 EX011349
    CK07U010  C2007 11 25.66556 07 07 49.18 +01 49 03.2          17.4 T EX011349
    CK07U010  C2007 12 01.00665 06 59 20.08 +01 51 46.1          17.0 N EX011J47
    CK07U010  C2007 12 01.01062 06 59 19.62 +01 51 45.4          17.0 N EX011213
    CK07U010  C2007 12 01.01291 06 59 19.44 +01 51 46.8          16.9 N EX011J47
    CK07U010  C2007 12 01.01826 06 59 18.86 +01 51 45.5          17.0 N EX011213
    CK07U010  C2007 12 01.01918 06 59 18.80 +01 51 47.2          16.9 N EX011J47
    CK07U010  C2007 12 01.02420 06 59 18.29 +01 51 46.7          17.0 N EX011213
    CK07U010  C2007 12 03.43559 06 55 11.71 +01 54 02.0          17.5 T EX011673
    CK07U010  C2007 12 03.44068 06 55 11.18 +01 54 02.3                 EX011673
    CK07U010  C2007 12 03.44589 06 55 10.60 +01 54 02.6                 EX011673
    CK07U010  C2007 12 03.45110 06 55 10.08 +01 54 03.2                 EX011673

Observer details:
213 Observatorio Montcabre.  Observer R. Naves.  Measurer M. Campas.  0.30-m
    f/6 Schmidt-Cassegrain + CCD.
349 Ageo.  Observer K. Kadota.  0.25-m f/5.0 reflector + CCD.
673 Table Mountain Observatory, Wrightwood.  Observer J. Young.  0.61-m f/16
    Cassegrain + CCD.
J47 Observatorio Nazaret.  Observer G. Muler.  0.20-m Schmidt-Cassegrain + CCD.

Orbital elements:
    C/2007 U1 (LINEAR)
T 2008 Aug. 7.2232 TT                                   MPC
q   3.329022             (2000.0)            P               Q
                   Peri.    0.9543      +0.6538524      +0.6989132
                   Node    50.0498      +0.6916586      -0.7074113
e   1.0            Incl.  157.7863      +0.3067334      +0.1053066
From 112 observations 2007 Oct. 19-Dec. 3.

Brian G. Marsden             (C) Copyright 2007 MPC           M.P.E.C. 2007-X11

Read MPEC 2007-X10 Read MPEC 2007-X12


MPEC number:

Enter an MPEC number in one of the following forms:

  • 1997-B01 (the full form)
  • J97B01 (the packed version of the full form)
  • B01 (the abbreviated form)

Valid HTML 4.01!